TimeEET,TemperatureF,Dew PointF,Humidity,Sea Level PressureIn,VisibilityMPH,Wind Direction,Wind SpeedMPH,Gust SpeedMPH,PrecipitationIn,Events,Conditions,WindDirDegrees,DateUTC
12:20 AM,50.0,48.2,94,30.04,6.2,NE,3.5,-,N/A,,Scattered Clouds,40,2012-11-20 22:20:00
12:50 AM,50.0,48.2,94,30.04,6.2,NNE,3.5,-,N/A,,Scattered Clouds,20,2012-11-20 22:50:00
1:20 AM,50.0,48.2,94,30.04,6.2,North,4.6,-,N/A,,Scattered Clouds,10,2012-11-20 23:20:00
1:50 AM,50.0,46.4,87,30.04,6.2,NE,6.9,-,N/A,,Scattered Clouds,40,2012-11-20 23:50:00
2:00 AM,49,46,87,30.04,6,NE,6.9,,,,Scattered Clouds,40,2012-11-21 00:00:00
2:50 AM,51.8,48.2,88,30.04,6.2,North,3.5,-,N/A,,Scattered Clouds,360,2012-11-21 00:50:00
3:20 AM,51.8,46.4,82,30.04,6.2,North,3.5,-,N/A,,Scattered Clouds,360,2012-11-21 01:20:00
3:50 AM,51.8,46.4,82,30.04,6.2,North,6.9,-,N/A,,Scattered Clouds,360,2012-11-21 01:50:00
4:20 AM,50.0,46.4,87,30.04,6.2,North,4.6,-,N/A,,Scattered Clouds,360,2012-11-21 02:20:00
4:50 AM,50.0,46.4,87,30.04,6.2,NNW,2.3,-,N/A,,Scattered Clouds,340,2012-11-21 02:50:00
5:20 AM,50.0,46.4,87,30.04,6.2,North,8.1,-,N/A,,Scattered Clouds,360,2012-11-21 03:20:00
5:50 AM,50.0,46.4,87,30.04,6.2,NW,3.5,-,N/A,,Scattered Clouds,310,2012-11-21 03:50:00
6:20 AM,50.0,46.4,87,30.04,6.2,North,4.6,-,N/A,,Scattered Clouds,360,2012-11-21 04:20:00
6:50 AM,48.2,46.4,93,30.04,6.2,North,6.9,-,N/A,,Scattered Clouds,10,2012-11-21 04:50:00
7:20 AM,51.8,48.2,88,30.04,6.2,North,9.2,-,N/A,,Scattered Clouds,360,2012-11-21 05:20:00
7:50 AM,55.4,48.2,77,30.06,6.2,North,9.2,-,N/A,,Scattered Clouds,360,2012-11-21 05:50:00
8:00 AM,55,49,73,30.07,6,North,9.2,,,,Scattered Clouds,0,2012-11-21 06:00:00
8:20 AM,57.2,50.0,77,30.06,6.2,North,4.6,-,N/A,,Scattered Clouds,360,2012-11-21 06:20:00
8:50 AM,60.8,50.0,68,30.06,6.2,NNW,2.3,-,N/A,,Scattered Clouds,340,2012-11-21 06:50:00
9:20 AM,64.4,48.2,56,30.06,6.2,NNE,6.9,-,N/A,,Scattered Clouds,30,2012-11-21 07:20:00
9:50 AM,66.2,48.2,52,30.06,6.2,ENE,1.2,-,N/A,,Partly Cloudy,70,2012-11-21 07:50:00
10:20 AM,68.0,48.2,49,30.04,6.2,SE,2.3,-,N/A,,Partly Cloudy,130,2012-11-21 08:20:00
10:50 AM,68.0,48.2,49,30.04,6.2,SSE,2.3,-,N/A,,Partly Cloudy,160,2012-11-21 08:50:00
11:20 AM,68.0,48.2,49,30.04,6.2,SSW,2.3,-,N/A,,Partly Cloudy,210,2012-11-21 09:20:00
11:50 AM,69.8,48.2,46,30.01,6.2,SSW,2.3,-,N/A,,Partly Cloudy,200,2012-11-21 09:50:00
12:20 PM,69.8,48.2,46,30.01,6.2,South,2.3,-,N/A,,Partly Cloudy,190,2012-11-21 10:20:00
12:50 PM,69.8,44.6,40,30.01,6.2,SSW,3.5,-,N/A,,Partly Cloudy,210,2012-11-21 10:50:00
1:20 PM,71.6,46.4,41,30.01,-9999.0,SW,3.5,-,N/A,,Clear,230,2012-11-21 11:20:00
1:50 PM,69.8,44.6,40,30.01,6.2,SSW,1.2,-,N/A,,Partly Cloudy,200,2012-11-21 11:50:00
2:00 PM,71,45,28,30.00,6,SSW,1.2,,,,Scattered Clouds,200,2012-11-21 12:00:00
2:20 PM,69.8,46.4,43,30.01,6.2,WSW,2.3,-,N/A,,Partly Cloudy,240,2012-11-21 12:20:00
2:50 PM,71.6,46.4,41,30.01,6.2,WSW,2.3,-,N/A,,Partly Cloudy,240,2012-11-21 12:50:00
3:20 PM,68.0,48.2,49,30.01,6.2,SW,2.3,-,N/A,,Partly Cloudy,230,2012-11-21 13:20:00
3:50 PM,68.0,48.2,49,29.98,6.2,SW,4.6,-,N/A,,Partly Cloudy,230,2012-11-21 13:50:00
4:20 PM,66.2,46.4,49,29.98,6.2,SSW,2.3,-,N/A,,Partly Cloudy,200,2012-11-21 14:20:00
4:50 PM,66.2,46.4,49,29.98,6.2,SSW,2.3,-,N/A,,Partly Cloudy,200,2012-11-21 14:50:00
5:20 PM,62.6,50.0,63,29.98,6.2,North,5.8,-,N/A,,Partly Cloudy,360,2012-11-21 15:20:00
5:50 PM,57.2,50.0,77,29.98,6.2,North,8.1,-,N/A,,Partly Cloudy,360,2012-11-21 15:50:00
6:20 PM,57.2,50.0,77,29.98,6.2,North,8.1,-,N/A,,Partly Cloudy,360,2012-11-21 16:20:00
6:50 PM,55.4,50.0,82,29.98,6.2,North,9.2,-,N/A,,Partly Cloudy,360,2012-11-21 16:50:00
7:20 PM,55.4,50.0,82,29.98,6.2,North,9.2,-,N/A,,Partly Cloudy,360,2012-11-21 17:20:00
7:50 PM,55.4,50.0,82,29.98,6.2,North,8.1,-,N/A,,Partly Cloudy,360,2012-11-21 17:50:00
8:00 PM,56,49,71,30.00,6,North,8.1,,,,Scattered Clouds,0,2012-11-21 18:00:00
8:20 PM,55.4,48.2,77,29.98,6.2,North,8.1,-,N/A,,Partly Cloudy,360,2012-11-21 18:20:00
8:50 PM,55.4,48.2,77,29.98,6.2,North,8.1,-,N/A,,Partly Cloudy,360,2012-11-21 18:50:00
9:20 PM,55.4,48.2,77,29.98,6.2,North,10.4,-,N/A,,Scattered Clouds,360,2012-11-21 19:20:00
9:50 PM,55.4,48.2,77,29.98,6.2,North,9.2,-,N/A,,Scattered Clouds,360,2012-11-21 19:50:00
10:20 PM,55.4,48.2,77,29.98,6.2,North,10.4,-,N/A,,Scattered Clouds,360,2012-11-21 20:20:00
10:50 PM,55.4,48.2,77,29.98,6.2,North,9.2,-,N/A,,Scattered Clouds,360,2012-11-21 20:50:00
11:20 PM,57.2,48.2,72,29.98,6.2,North,9.2,-,N/A,,Scattered Clouds,360,2012-11-21 21:20:00
11:50 PM,57.2,48.2,72,29.98,6.2,North,8.1,-,N/A,,Scattered Clouds,360,2012-11-21 21:50:00